FW4518 Weather Reports


Display with metric or nautical units.
time (UTC)temp
F
wind
direction
speed
MPH
gust
MPH
rain 1hr
in
rain 24hr
in
rain mn
in
humidity
%
barometer
mb
20260504050636 63 0.0 0.0 0.00 0.00 0.00 56 1012.1
20260504045636 65 0.0 2.0 0.00 0.00 0.00 49 1012.0
20260504044656 66 355 1.0 3.0 0.00 0.00 0.00 47 1011.9
20260504043638 66 15 2.0 3.0 0.00 0.00 0.00 47 1011.9
20260504042636 64 4 1.0 6.0 0.00 0.00 0.00 51 1011.8
20260504041636 65 0.0 0.0 0.00 0.00 0.00 50 1011.8
20260504040636 67 0.0 0.0 0.00 0.00 0.00 47 1011.6
20260504035636 68 7 1.0 4.0 0.00 0.00 0.00 46 1011.5
20260504034637 69 32 1.0 7.0 0.00 0.00 0.00 45 1011.5
20260504033637 69 347 4.0 7.0 0.00 0.00 0.00 44 1011.3
20260504032636 70 7 4.0 8.0 0.00 0.00 0.00 43 1011.2
20260504031636 71 36 6.0 11.0 0.00 0.00 0.00 43 1011.2
20260504030637 72 16 6.0 10.0 0.00 0.00 0.00 42 1011.1
20260504025637 73 9 6.0 9.0 0.00 0.00 0.00 41 1011.0
20260504024636 74 18 6.0 10.0 0.00 0.00 0.00 40 1010.9
20260504023637 75 23 7.0 15.0 0.00 0.00 0.00 39 1010.8
20260504022636 76 20 7.0 12.0 0.00 0.00 0.00 39 1010.8
20260504021637 77 22 7.0 15.0 0.00 0.00 0.00 38 1010.8
20260504020636 77 24 7.0 14.0 0.00 0.00 0.00 37 1010.8
20260504015637 78 32 7.0 11.0 0.00 0.00 0.00 36 1010.8
20260504014637 78 359 5.0 10.0 0.00 0.00 0.00 37 1010.8
20260504013637 79 8 8.0 12.0 0.00 0.00 0.00 37 1010.8
20260504012657 79 17 8.0 16.0 0.00 0.00 0.00 36 1010.8
20260504011637 79 13 8.0 14.0 0.00 0.00 0.00 35 1010.8
20260504010637 80 16 10.0 16.0 0.00 0.00 0.00 36 1010.9
20260504005637 80 34 8.0 13.0 0.00 0.00 0.00 36 1010.9
20260504004637 81 349 7.0 13.0 0.00 0.00 0.00 35 1010.9
20260504003637 80 345 8.0 12.0 0.00 0.02 0.00 35 1010.9
20260504002637 81 25 8.0 16.0 0.00 0.07 0.00 34 1010.9
20260504001637 81 39 9.0 17.0 0.00 0.07 0.00 35 1010.9
20260504000637 81 54 8.0 13.0 0.00 0.07 0.00 35 1011.0
20260503235637 81 10 8.0 14.0 0.00 0.07 0.00 35 1011.0
20260503234637 81 339 8.0 15.0 0.00 0.07 0.00 35 1011.1
20260503233637 82 37 3.0 7.0 0.00 0.07 0.00 36 1011.2
20260503232637 81 16 8.0 17.0 0.00 0.07 0.00 35 1011.4
20260503231637 82 325 8.0 12.0 0.00 0.07 0.00 34 1011.4
20260503230658 82 358 7.0 14.0 0.00 0.07 0.00 34 1011.6
20260503225637 82 20 4.0 13.0 0.00 0.07 0.00 34 1011.8
20260503224638 81 296 7.0 13.0 0.00 0.07 0.00 35 1011.9
20260503223637 82 322 6.0 12.0 0.00 0.07 0.00 36 1012.2
20260503222637 81 15 7.0 12.0 0.00 0.07 0.00 37 1012.3
20260503221637 81 339 9.0 17.0 0.00 0.07 0.00 38 1012.4
20260503220637 80 22 8.0 15.0 0.00 0.07 0.00 39 1012.6
20260503215637 82 7 6.0 11.0 0.00 0.07 0.00 38 1012.7
20260503214638 81 32 7.0 13.0 0.00 0.07 0.00 38 1012.8
20260503213639 80 23 8.0 14.0 0.00 0.07 0.00 40 1013.0
20260503212637 80 28 7.0 13.0 0.00 0.07 0.00 41 1013.1
20260503211637 80 55 6.0 11.0 0.00 0.07 0.00 40 1013.2
20260503210637 80 356 4.0 10.0 0.00 0.07 0.00 41 1013.4
20260503205637 79 45 7.0 12.0 0.00 0.07 0.00 42 1013.5
20260503204637 78 307 7.0 11.0 0.00 0.07 0.00 43 1013.6
20260503203657 79 41 3.0 8.0 0.00 0.07 0.00 42 1013.7
20260503202637 79 12 5.0 10.0 0.00 0.07 0.00 43 1013.8
20260503201637 78 44 3.0 10.0 0.00 0.07 0.00 45 1013.9
20260503200637 77 260 4.0 9.0 0.00 0.07 0.00 46 1014.1
20260503195639 77 136 2.0 9.0 0.00 0.07 0.00 46 1014.2
20260503194637 77 350 5.0 8.0 0.00 0.07 0.00 46 1014.4
20260503193637 76 14 4.0 10.0 0.00 0.07 0.00 46 1014.5
20260503192637 76 2 2.0 9.0 0.00 0.07 0.00 47 1014.7
20260503191638 75 345 2.0 7.0 0.00 0.07 0.00 47 1014.8
20260503190638 75 35 2.0 8.0 0.00 0.07 0.00 47 1015.0
20260503185637 74 6 1.0 8.0 0.00 0.07 0.00 50 1015.2
20260503184637 73 359 2.0 7.0 0.00 0.07 0.00 50 1015.3
20260503183637 71 26 2.0 7.0 0.00 0.07 0.00 53 1015.5
20260503182638 71 263 2.0 7.0 0.00 0.07 0.00 53 1015.7
20260503181638 70 350 3.0 7.0 0.00 0.07 0.00 55 1015.8
20260503180637 70 60 4.0 7.0 0.00 0.07 0.00 55 1015.9
20260503175657 68 355 2.0 6.0 0.00 0.07 0.00 56 1016.1
20260503174638 68 191 3.0 6.0 0.00 0.07 0.00 56 1016.1
20260503173638 67 341 2.0 6.0 0.00 0.07 0.00 57 1016.1
20260503172637 66 23 3.0 7.0 0.00 0.07 0.00 57 1016.2
20260503171637 66 9 0.0 3.0 0.00 0.07 0.00 57 1016.2
20260503170638 64 13 1.0 3.0 0.00 0.07 0.00 58 1016.4
20260503150638 53 180 5.0 7.0 0.00 0.07 0.00 81 1016.9
20260503130638 41 0.0 0.0 0.00 0.07 0.00 100 1016.8
20260503110638 43 0.0 0.0 0.00 0.07 0.00 100 1016.7
20260503080658 47 0.0 0.0 0.00 0.07 0.00 99 1016.4
20260503072638 48 200 0.0 2.0 0.00 0.07 0.00 98 1016.5
20260503071638 48 0.0 0.0 0.00 0.07 0.00 95 1016.8
20260503070638 48 0.0 0.0 0.00 0.07 0.00 96 1016.7